Location: Hermaringen
(48.5952°N, 10.2585°E)
Time: 22:04:49
(UTC+00:00)

SJ-6F - Pass Details

Date: 18 November 2025
Orbit: 543 x 570 km, 97.9° (Epoch: 05 December)

Event Time Altitude Azimuth Distance (km) Brightness Sun altitude
Rises 16:59:31 0° 163° (SSE) 2,694 7.8 -13.7°
Reaches altitude 10° 17:01:38 10° 163° (SSE) 1,806 6.9 -14.0°
Maximum altitude 17:05:32 86° 78° (ENE) 553 4.2 -14.6°
Drops below altitude 10° 17:09:29 10° 347° (NNW) 1,826 7.0 -15.3°
Sets 17:11:37 0° 347° (NNW) 2,727 7.9 -15.6°
